AFR345M CYUL-LFPG

Flight info

Callsign AFR345M
Flight time 6h 32m
Altitude 35000
Route SUXET DCT NOVUN DCT ESRAM DCT RABIK Q951 ANTOV DCT MIILS DCT PORTI/M083F350 DCT 47N050W 49N040W 51N030W 52N020W DCT LIMRI/N0474F350 DCT XETBO/M082F350 DCT ARKIL/N0469F350 DCT ANNET UM25 LUKIP
Aircraft B77W/H-SDE2E3FGHIJ3J5M1P2RWXYZ/LB1D1

Departure

Time 2026-05-06 13:46
Airport Montreal / Pierre Elliott Trudeau International Airport (CYUL)

Arrival

Time 2026-05-06 20:19
Airport Charles de Gaulle International Airport (LFPG)
Time Latitude Longitude Altitude Speed Heading
2026-05-06 12:52 45.45938 -73.75137 110 ft 0 kts 178°
2026-05-06 13:32 45.45954 -73.75139 108 ft 4 kts 169°
2026-05-06 13:32 45.45979 -73.75150 108 ft 4 kts 148°
2026-05-06 13:33 45.45998 -73.75175 108 ft 4 kts 116°
2026-05-06 13:33 45.46003 -73.75200 105 ft 0 kts 85°
2026-05-06 13:36 45.46004 -73.75188 107 ft 5 kts 84°
2026-05-06 13:36 45.46009 -73.75089 110 ft 15 kts 89°
2026-05-06 13:36 45.45985 -73.74947 110 ft 15 kts 98°
2026-05-06 13:37 45.45983 -73.74800 110 ft 15 kts 95°
2026-05-06 13:37 45.45959 -73.74657 110 ft 15 kts 96°
2026-05-06 13:37 45.45973 -73.74511 109 ft 15 kts 75°
2026-05-06 13:37 45.45996 -73.74407 108 ft 10 kts 88°
2026-05-06 13:38 45.45974 -73.74311 108 ft 10 kts 97°
2026-05-06 13:38 45.46011 -73.74228 107 ft 10 kts 45°
2026-05-06 13:38 45.46084 -73.74131 108 ft 16 kts 42°
2026-05-06 13:38 45.46168 -73.74019 109 ft 16 kts 43°
2026-05-06 13:39 45.46252 -73.73908 109 ft 16 kts 42°
2026-05-06 13:39 45.46337 -73.73799 108 ft 16 kts 41°
2026-05-06 13:39 45.46425 -73.73687 110 ft 19 kts 43°
2026-05-06 13:39 45.46524 -73.73556 111 ft 20 kts 44°
2026-05-06 13:40 45.46623 -73.73424 112 ft 20 kts 43°
2026-05-06 13:40 45.46723 -73.73293 113 ft 19 kts 43°
2026-05-06 13:40 45.46823 -73.73162 117 ft 19 kts 43°
2026-05-06 13:40 45.46923 -73.73032 117 ft 19 kts 43°
2026-05-06 13:41 45.47022 -73.72900 118 ft 19 kts 43°
2026-05-06 13:41 45.47122 -73.72770 118 ft 19 kts 42°
2026-05-06 13:41 45.47222 -73.72639 120 ft 19 kts 43°
2026-05-06 13:41 45.47322 -73.72509 121 ft 19 kts 43°
2026-05-06 13:42 45.47421 -73.72379 120 ft 19 kts 43°
2026-05-06 13:42 45.47520 -73.72248 121 ft 19 kts 43°
2026-05-06 13:42 45.47620 -73.72117 120 ft 19 kts 42°
2026-05-06 13:42 45.47720 -73.71986 121 ft 19 kts 44°
2026-05-06 13:43 45.47795 -73.71887 123 ft 9 kts 42°
2026-05-06 13:43 45.47839 -73.71827 122 ft 9 kts 41°
2026-05-06 13:43 45.47873 -73.71758 124 ft 9 kts 79°
2026-05-06 13:43 45.47846 -73.71682 125 ft 9 kts 128°
2026-05-06 13:44 45.47805 -73.71618 124 ft 9 kts 133°
2026-05-06 13:44 45.47761 -73.71560 124 ft 9 kts 148°
2026-05-06 13:44 45.47710 -73.71591 127 ft 9 kts 221°
2026-05-06 13:44 45.47704 -73.71598 127 ft 0 kts 222°
2026-05-06 13:45 45.47409 -73.71985 122 ft 92 kts 223°
2026-05-06 13:45 45.46760 -73.72835 115 ft 159 kts 222°
2026-05-06 13:46 45.45823 -73.74035 357 ft 188 kts 219°
2026-05-06 13:46 45.44761 -73.75240 820 ft 205 kts 218°
2026-05-06 13:46 45.43679 -73.76472 1871 ft 193 kts 219°
2026-05-06 13:46 45.42649 -73.77775 2258 ft 211 kts 229°
2026-05-06 13:47 45.41381 -73.79003 2315 ft 239 kts 193°
2026-05-06 13:47 45.39685 -73.78721 2603 ft 260 kts 154°
2026-05-06 13:47 45.38375 -73.77000 3180 ft 266 kts 118°
2026-05-06 13:47 45.37642 -73.74572 3952 ft 267 kts 110°
2026-05-06 13:48 45.36974 -73.72115 4623 ft 274 kts 111°
2026-05-06 13:48 45.36256 -73.69562 5275 ft 281 kts 113°
2026-05-06 13:48 45.35515 -73.66973 6047 ft 284 kts 115°
2026-05-06 13:48 45.34754 -73.64355 6777 ft 287 kts 116°
2026-05-06 13:49 45.33987 -73.61732 7521 ft 289 kts 117°
2026-05-06 13:49 45.33210 -73.59096 8250 ft 292 kts 118°
2026-05-06 13:49 45.32419 -73.56425 8946 ft 295 kts 119°
2026-05-06 13:49 45.31616 -73.53720 9707 ft 296 kts 120°
2026-05-06 13:50 45.30815 -73.51026 10395 ft 299 kts 120°
2026-05-06 13:50 45.29975 -73.48226 10663 ft 320 kts 120°
2026-05-06 13:50 45.29063 -73.45198 10855 ft 344 kts 120°
2026-05-06 13:50 45.28092 -73.41966 11032 ft 368 kts 119°
2026-05-06 13:51 45.27069 -73.38543 11420 ft 384 kts 119°
2026-05-06 13:51 45.26013 -73.34995 12049 ft 395 kts 119°
2026-05-06 13:51 45.24939 -73.31384 12826 ft 402 kts 119°
2026-05-06 13:51 45.23840 -73.27707 13595 ft 409 kts 119°
2026-05-06 13:52 45.22713 -73.23957 14309 ft 415 kts 119°
2026-05-06 13:52 45.21612 -73.20135 15005 ft 424 kts 115°
2026-05-06 13:52 45.20863 -73.16046 15766 ft 435 kts 105°
2026-05-06 13:52 45.20529 -73.11727 16523 ft 446 kts 96°
2026-05-06 13:53 45.20611 -73.07288 17222 ft 455 kts 91°
2026-05-06 13:53 45.20929 -73.02776 17923 ft 465 kts 83°
2026-05-06 13:53 45.21738 -72.98292 18556 ft 474 kts 73°
2026-05-06 13:53 45.22962 -72.93927 19188 ft 481 kts 64°
2026-05-06 13:54 45.24619 -72.89772 19809 ft 487 kts 59°
2026-05-06 13:54 45.26379 -72.85629 20441 ft 493 kts 60°
2026-05-06 13:54 45.27935 -72.81271 21032 ft 498 kts 69°
2026-05-06 13:54 45.28994 -72.76570 21612 ft 501 kts 79°
2026-05-06 13:55 45.29595 -72.71693 22219 ft 502 kts 88°
2026-05-06 13:55 45.29755 -72.66748 22844 ft 504 kts 93°
2026-05-06 13:55 45.29866 -72.61742 23399 ft 510 kts 91°
2026-05-06 13:55 45.30063 -72.56671 23845 ft 517 kts 90°
2026-05-06 13:56 45.30332 -72.51624 24343 ft 521 kts 89°
2026-05-06 13:56 45.30641 -72.46417 24875 ft 525 kts 89°
2026-05-06 13:56 45.30951 -72.41233 25384 ft 528 kts 89°
2026-05-06 13:56 45.31250 -72.36037 25856 ft 531 kts 89°
2026-05-06 13:57 45.31540 -72.30768 26318 ft 534 kts 89°
2026-05-06 13:57 45.31817 -72.25565 26818 ft 537 kts 89°
2026-05-06 13:57 45.32096 -72.20196 27288 ft 540 kts 89°
2026-05-06 13:57 45.32369 -72.14870 27696 ft 544 kts 89°
2026-05-06 13:58 45.32643 -72.09492 28086 ft 548 kts 89°
2026-05-06 13:58 45.32918 -72.04072 28481 ft 551 kts 89°
2026-05-06 13:58 45.33193 -71.98622 28879 ft 554 kts 89°
2026-05-06 13:58 45.33464 -71.93220 29287 ft 556 kts 89°
2026-05-06 13:59 45.33738 -71.87731 29779 ft 556 kts 88°
2026-05-06 13:59 45.34167 -71.82278 30292 ft 556 kts 83°
2026-05-06 13:59 45.34762 -71.76857 30717 ft 556 kts 83°
2026-05-06 13:59 45.35386 -71.71434 31086 ft 557 kts 83°
2026-05-06 14:00 45.36014 -71.65986 31440 ft 558 kts 83°
2026-05-06 14:00 45.36629 -71.60547 31807 ft 559 kts 83°
2026-05-06 14:00 45.37233 -71.55071 32178 ft 559 kts 83°
2026-05-06 14:00 45.37823 -71.49621 32554 ft 560 kts 84°
2026-05-06 14:01 45.38407 -71.44148 32960 ft 558 kts 83°
2026-05-06 14:01 45.38988 -71.38684 33453 ft 556 kts 84°
2026-05-06 14:01 45.39563 -71.33257 33847 ft 556 kts 84°
2026-05-06 14:01 45.40139 -71.27803 34151 ft 557 kts 84°
2026-05-06 14:02 45.40713 -71.22350 34446 ft 557 kts 84°
2026-05-06 14:02 45.41284 -71.16914 34742 ft 557 kts 84°
2026-05-06 14:02 45.41865 -71.11434 34853 ft 562 kts 82°
2026-05-06 14:02 45.42709 -71.05994 34893 ft 564 kts 75°
2026-05-06 14:03 45.45364 -70.95590 34872 ft 553 kts 64°
2026-05-06 14:03 45.49007 -70.85995 34899 ft 551 kts 59°
2026-05-06 14:04 45.52790 -70.76487 34891 ft 553 kts 59°
2026-05-06 14:04 45.56557 -70.66875 34893 ft 556 kts 59°
2026-05-06 14:05 45.60293 -70.57192 34880 ft 558 kts 60°
2026-05-06 14:05 45.64025 -70.47458 34848 ft 558 kts 60°
2026-05-06 14:06 45.67738 -70.37743 34910 ft 556 kts 60°
2026-05-06 14:06 45.71441 -70.28029 34886 ft 556 kts 60°
2026-05-06 14:07 45.75138 -70.18303 34883 ft 556 kts 60°
2026-05-06 14:07 45.78795 -70.08648 34887 ft 555 kts 60°
2026-05-06 14:08 45.82494 -69.98846 34885 ft 555 kts 60°
2026-05-06 14:08 45.86127 -69.89183 34875 ft 555 kts 60°
2026-05-06 14:09 45.89780 -69.79433 34902 ft 555 kts 60°
2026-05-06 14:09 45.93431 -69.69651 34903 ft 556 kts 60°
2026-05-06 14:10 45.97079 -69.59845 34901 ft 556 kts 60°
2026-05-06 14:10 46.00710 -69.50049 34897 ft 554 kts 60°
2026-05-06 14:11 46.04328 -69.40250 34907 ft 553 kts 60°
2026-05-06 14:11 46.07926 -69.30473 34915 ft 553 kts 60°
2026-05-06 14:12 46.11517 -69.20678 34929 ft 553 kts 60°
2026-05-06 14:12 46.15097 -69.10877 34908 ft 551 kts 60°
2026-05-06 14:13 46.18650 -69.01116 34912 ft 549 kts 60°
2026-05-06 14:13 46.22181 -68.91378 34915 ft 548 kts 60°
2026-05-06 14:14 46.25119 -68.83251 34935 ft 547 kts 61°
2026-05-06 14:14 46.28633 -68.73495 34892 ft 548 kts 61°
2026-05-06 14:15 46.32140 -68.63726 34919 ft 548 kts 61°
2026-05-06 14:15 46.35645 -68.53923 34919 ft 548 kts 61°
2026-05-06 14:16 46.39143 -68.44105 34949 ft 549 kts 61°
2026-05-06 14:16 46.42641 -68.34253 34941 ft 551 kts 61°
2026-05-06 14:17 46.46139 -68.24363 34946 ft 551 kts 61°
2026-05-06 14:17 46.49605 -68.14524 34945 ft 551 kts 61°
2026-05-06 14:18 46.53079 -68.04627 34943 ft 550 kts 61°
2026-05-06 14:18 46.56545 -67.94717 34926 ft 550 kts 61°
2026-05-06 14:19 46.59992 -67.84824 34926 ft 549 kts 61°
2026-05-06 14:19 46.63432 -67.74915 34916 ft 548 kts 61°
2026-05-06 14:20 46.66857 -67.65009 34918 ft 548 kts 61°
2026-05-06 14:20 46.70281 -67.55072 34898 ft 548 kts 62°
2026-05-06 14:21 46.73686 -67.45149 34896 ft 547 kts 62°
2026-05-06 14:21 46.77074 -67.35241 34898 ft 546 kts 62°
2026-05-06 14:22 46.80452 -67.25322 34908 ft 545 kts 62°
2026-05-06 14:22 46.83824 -67.15387 34899 ft 545 kts 62°
2026-05-06 14:23 46.86615 -67.05107 34894 ft 546 kts 75°
2026-05-06 14:23 46.87962 -66.94206 34870 ft 544 kts 88°
2026-05-06 14:24 46.88349 -66.83159 34916 ft 543 kts 89°
2026-05-06 14:24 46.88695 -66.72121 34927 ft 545 kts 89°
2026-05-06 14:25 46.89080 -66.61034 34904 ft 546 kts 89°
2026-05-06 14:25 46.89486 -66.49956 34905 ft 545 kts 89°
2026-05-06 14:26 46.89886 -66.38903 34913 ft 543 kts 88°
2026-05-06 14:26 46.90273 -66.27888 34924 ft 541 kts 89°
2026-05-06 14:27 46.90641 -66.16988 34912 ft 539 kts 89°
2026-05-06 14:27 46.90998 -66.06048 34938 ft 539 kts 89°
2026-05-06 14:28 46.91345 -65.95121 34929 ft 537 kts 89°
2026-05-06 14:28 46.91682 -65.84228 34957 ft 536 kts 89°
2026-05-06 14:29 46.92007 -65.73341 34936 ft 536 kts 89°
2026-05-06 14:29 46.92323 -65.62439 34940 ft 536 kts 89°
2026-05-06 14:30 46.92627 -65.51543 34931 ft 536 kts 89°
2026-05-06 14:30 46.92923 -65.40634 34934 ft 536 kts 89°
2026-05-06 14:31 46.93207 -65.29754 34936 ft 536 kts 89°
2026-05-06 14:31 46.93481 -65.18863 34936 ft 536 kts 89°
2026-05-06 14:32 46.93744 -65.07979 34916 ft 535 kts 89°
2026-05-06 14:32 46.93997 -64.97112 34944 ft 534 kts 89°
2026-05-06 14:33 46.94239 -64.86241 34935 ft 533 kts 89°
2026-05-06 14:33 46.94470 -64.75406 34934 ft 532 kts 89°
2026-05-06 14:34 46.94691 -64.64590 34933 ft 531 kts 90°
2026-05-06 14:34 46.94901 -64.53813 34943 ft 529 kts 89°
2026-05-06 14:35 46.95100 -64.43055 34934 ft 528 kts 89°
2026-05-06 14:35 46.95289 -64.32306 34939 ft 528 kts 90°
2026-05-06 14:36 46.95468 -64.21578 34949 ft 527 kts 90°
2026-05-06 14:36 46.95637 -64.10840 34951 ft 528 kts 90°
2026-05-06 14:37 46.95794 -64.00167 34953 ft 529 kts 90°
2026-05-06 14:37 46.95943 -63.89398 34956 ft 530 kts 90°
2026-05-06 14:38 46.96083 -63.78613 34958 ft 530 kts 90°
2026-05-06 14:38 46.96212 -63.67815 34951 ft 530 kts 90°
2026-05-06 14:39 46.96331 -63.57022 34956 ft 529 kts 90°
2026-05-06 14:39 46.96440 -63.46262 34964 ft 529 kts 90°
2026-05-06 14:40 46.96539 -63.35497 34966 ft 528 kts 90°
2026-05-06 14:40 46.96627 -63.24754 34948 ft 527 kts 90°
2026-05-06 14:41 46.96705 -63.14044 34969 ft 526 kts 90°
2026-05-06 14:41 46.96773 -63.03344 34964 ft 525 kts 90°
2026-05-06 14:42 46.96830 -62.92744 34972 ft 524 kts 90°
2026-05-06 14:42 46.96878 -62.82086 34975 ft 523 kts 90°
2026-05-06 14:43 46.96916 -62.71432 34972 ft 523 kts 90°
2026-05-06 14:43 46.96944 -62.60793 34981 ft 523 kts 90°
2026-05-06 14:44 46.96963 -62.50155 34986 ft 523 kts 90°
2026-05-06 14:45 46.96972 -62.34171 34983 ft 523 kts 90°
2026-05-06 14:45 46.96966 -62.23536 35001 ft 522 kts 91°
2026-05-06 14:46 46.96950 -62.12913 34991 ft 521 kts 91°
2026-05-06 14:46 46.96924 -62.02335 34999 ft 519 kts 91°
2026-05-06 14:47 46.96888 -61.91777 35006 ft 518 kts 91°
2026-05-06 14:47 46.96844 -61.81257 35010 ft 516 kts 92°
2026-05-06 14:48 46.96789 -61.70809 35008 ft 516 kts 92°
2026-05-06 14:48 46.96724 -61.60258 35022 ft 515 kts 92°
2026-05-06 14:49 46.96651 -61.49841 35023 ft 515 kts 92°
2026-05-06 14:49 46.96568 -61.39349 35007 ft 515 kts 92°
2026-05-06 14:50 46.96475 -61.28863 35016 ft 515 kts 92°
2026-05-06 14:50 46.96373 -61.18380 35033 ft 515 kts 93°
2026-05-06 14:51 46.96261 -61.07885 35036 ft 515 kts 93°
2026-05-06 14:51 46.96139 -60.97403 35035 ft 515 kts 93°
2026-05-06 14:52 46.96009 -60.86922 35025 ft 515 kts 93°
2026-05-06 14:52 46.95868 -60.76443 35030 ft 514 kts 93°
2026-05-06 14:53 46.95718 -60.65980 35034 ft 514 kts 93°
2026-05-06 14:53 46.95558 -60.55511 35057 ft 515 kts 94°
2026-05-06 14:54 46.95388 -60.45033 35034 ft 514 kts 93°
2026-05-06 14:54 46.95213 -60.34651 35041 ft 513 kts 93°
2026-05-06 14:55 46.95025 -60.24164 35036 ft 512 kts 93°
2026-05-06 14:55 46.94829 -60.13829 35051 ft 511 kts 94°
2026-05-06 14:56 46.94624 -60.03460 35058 ft 510 kts 94°
2026-05-06 14:56 46.94409 -59.93099 35057 ft 508 kts 93°
2026-05-06 14:57 46.94187 -59.82797 35069 ft 506 kts 93°
2026-05-06 14:57 46.93956 -59.72532 35074 ft 504 kts 93°
2026-05-06 14:58 46.93717 -59.62292 35091 ft 503 kts 93°
2026-05-06 14:58 46.93468 -59.52056 35086 ft 503 kts 94°
2026-05-06 14:59 46.93211 -59.41833 35088 ft 504 kts 94°
2026-05-06 14:59 46.92944 -59.31580 35100 ft 504 kts 94°
2026-05-06 15:00 46.92667 -59.21325 35099 ft 505 kts 94°
2026-05-06 15:00 46.92381 -59.11047 35100 ft 506 kts 94°
2026-05-06 15:01 46.92085 -59.00766 35119 ft 505 kts 94°
2026-05-06 15:01 46.91781 -58.90499 35130 ft 505 kts 94°
2026-05-06 15:02 46.91468 -58.80253 35127 ft 504 kts 94°
2026-05-06 15:02 46.91147 -58.70028 35128 ft 503 kts 94°
2026-05-06 15:03 46.90817 -58.59824 35114 ft 502 kts 95°
2026-05-06 15:03 46.90480 -58.49693 35146 ft 502 kts 95°
2026-05-06 15:04 46.90133 -58.39510 35153 ft 502 kts 95°
2026-05-06 15:04 46.89776 -58.29314 35160 ft 502 kts 95°
2026-05-06 15:05 46.89410 -58.19117 35138 ft 503 kts 95°
2026-05-06 15:05 46.89096 -58.10564 35163 ft 503 kts 95°
2026-05-06 15:06 46.88715 -58.00418 35170 ft 503 kts 95°
2026-05-06 15:06 46.88323 -57.90214 35170 ft 503 kts 95°
2026-05-06 15:07 46.87922 -57.80017 35176 ft 503 kts 95°
2026-05-06 15:07 46.87512 -57.69819 35169 ft 502 kts 95°
2026-05-06 15:08 46.87094 -57.59650 35184 ft 501 kts 95°
2026-05-06 15:08 46.86668 -57.49510 35188 ft 500 kts 95°
2026-05-06 15:09 46.86234 -57.39375 35195 ft 499 kts 95°
2026-05-06 15:09 46.85791 -57.29261 35195 ft 499 kts 95°
2026-05-06 15:10 46.85339 -57.19153 35202 ft 499 kts 95°
2026-05-06 15:10 46.84879 -57.09052 35207 ft 498 kts 95°
2026-05-06 15:11 46.84411 -56.98951 35219 ft 498 kts 96°
2026-05-06 15:11 46.83933 -56.88863 35220 ft 497 kts 96°
2026-05-06 15:12 46.83447 -56.78794 35206 ft 497 kts 96°
2026-05-06 15:12 46.82954 -56.68750 35217 ft 496 kts 96°
2026-05-06 15:13 46.82453 -56.58723 35222 ft 495 kts 96°
2026-05-06 15:13 46.81947 -56.48773 35235 ft 494 kts 96°
2026-05-06 15:14 46.81430 -56.38769 35229 ft 494 kts 96°
2026-05-06 15:14 46.80903 -56.28761 35240 ft 494 kts 96°
2026-05-06 15:15 46.80368 -56.18763 35236 ft 494 kts 96°
2026-05-06 15:15 46.79826 -56.08780 35244 ft 493 kts 96°
2026-05-06 15:16 46.79275 -55.98814 35237 ft 491 kts 96°
2026-05-06 15:16 46.78719 -55.88906 35243 ft 490 kts 97°
2026-05-06 15:17 46.78155 -55.79008 35253 ft 489 kts 97°
2026-05-06 15:17 46.77583 -55.69139 35270 ft 488 kts 97°
2026-05-06 15:18 46.77002 -55.59263 35280 ft 489 kts 97°
2026-05-06 15:18 46.76413 -55.49384 35272 ft 489 kts 97°
2026-05-06 15:19 46.75815 -55.39495 35269 ft 490 kts 97°
2026-05-06 15:19 46.75207 -55.29601 35282 ft 490 kts 97°
2026-05-06 15:20 46.74591 -55.19703 35282 ft 490 kts 97°
2026-05-06 15:20 46.73968 -55.09819 35272 ft 490 kts 97°
2026-05-06 15:21 46.73340 -55.00009 35268 ft 489 kts 98°
2026-05-06 15:21 46.72696 -54.90090 35273 ft 488 kts 98°
2026-05-06 15:22 46.72054 -54.80320 35273 ft 488 kts 98°
2026-05-06 15:22 46.71399 -54.70483 35282 ft 487 kts 98°
2026-05-06 15:23 46.70736 -54.60663 35283 ft 487 kts 98°
2026-05-06 15:23 46.70064 -54.50838 35264 ft 487 kts 98°
2026-05-06 15:24 46.69383 -54.41006 35287 ft 488 kts 98°
2026-05-06 15:24 46.68694 -54.31182 35292 ft 488 kts 98°
2026-05-06 15:25 46.67996 -54.21344 35287 ft 488 kts 98°
2026-05-06 15:25 46.67290 -54.11516 35294 ft 488 kts 98°
2026-05-06 15:26 46.66575 -54.01688 35286 ft 488 kts 98°
2026-05-06 15:26 46.65853 -53.91880 35297 ft 488 kts 98°
2026-05-06 15:27 46.65121 -53.82061 35302 ft 488 kts 98°
2026-05-06 15:27 46.64381 -53.72244 35310 ft 488 kts 98°
2026-05-06 15:28 46.63633 -53.62432 35299 ft 488 kts 99°
2026-05-06 15:28 46.62877 -53.52614 35306 ft 489 kts 99°
2026-05-06 15:29 46.62109 -53.42782 35331 ft 490 kts 99°
2026-05-06 15:29 46.61333 -53.32941 35327 ft 491 kts 99°
2026-05-06 15:30 46.60552 -53.23149 35332 ft 492 kts 99°
2026-05-06 15:30 46.59757 -53.13286 35321 ft 492 kts 99°
2026-05-06 15:31 46.58950 -53.03381 35328 ft 493 kts 99°
2026-05-06 15:31 46.58135 -52.93489 35325 ft 493 kts 99°
2026-05-06 15:32 46.56894 -52.78633 35322 ft 493 kts 99°
2026-05-06 15:32 46.56057 -52.68741 35322 ft 493 kts 99°
2026-05-06 15:33 46.55212 -52.58857 35325 ft 494 kts 99°
2026-05-06 15:33 46.54357 -52.48952 35331 ft 494 kts 99°
2026-05-06 15:34 46.53496 -52.39095 35333 ft 495 kts 99°
2026-05-06 15:34 46.52616 -52.29112 35329 ft 496 kts 100°
2026-05-06 15:35 46.51733 -52.19190 35330 ft 496 kts 99°
2026-05-06 15:35 46.50847 -52.09321 35335 ft 496 kts 99°
2026-05-06 15:36 46.50776 -51.99304 35335 ft 500 kts 83°
2026-05-06 15:36 46.52554 -51.89483 35342 ft 502 kts 69°
2026-05-06 15:37 46.55073 -51.80079 35343 ft 502 kts 69°
2026-05-06 15:37 46.57602 -51.70600 35337 ft 503 kts 69°
2026-05-06 15:38 46.60071 -51.61099 35329 ft 502 kts 69°
2026-05-06 15:38 46.62510 -51.51577 35332 ft 502 kts 70°
2026-05-06 15:39 46.64934 -51.42058 35328 ft 501 kts 70°
2026-05-06 15:39 46.67351 -51.32541 35333 ft 501 kts 70°
2026-05-06 15:40 46.69760 -51.23026 35333 ft 501 kts 70°
2026-05-06 15:40 46.72157 -51.13517 35330 ft 501 kts 70°
2026-05-06 15:41 46.74548 -51.03990 35328 ft 500 kts 70°
2026-05-06 15:41 46.76927 -50.94472 35332 ft 500 kts 70°
2026-05-06 15:42 46.79297 -50.84951 35333 ft 499 kts 70°
2026-05-06 15:42 46.81657 -50.75429 35324 ft 498 kts 70°
2026-05-06 15:43 46.84004 -50.65918 35326 ft 498 kts 70°
2026-05-06 15:43 46.86328 -50.56464 35329 ft 497 kts 70°
2026-05-06 15:44 46.88673 -50.46881 35326 ft 496 kts 70°
2026-05-06 15:44 46.90974 -50.37440 35326 ft 496 kts 70°
2026-05-06 15:45 46.93296 -50.27867 35326 ft 496 kts 70°
2026-05-06 15:45 46.95582 -50.18407 35331 ft 497 kts 70°
2026-05-06 15:46 46.97877 -50.08867 35326 ft 497 kts 70°
2026-05-06 15:46 47.00169 -49.99305 35324 ft 497 kts 70°
2026-05-06 15:47 47.02532 -49.89783 35329 ft 498 kts 69°
2026-05-06 15:47 47.04943 -49.80270 35319 ft 498 kts 68°
2026-05-06 15:48 47.07341 -49.70743 35319 ft 498 kts 69°
2026-05-06 15:48 47.09721 -49.61200 35318 ft 498 kts 69°
2026-05-06 15:49 47.12086 -49.51651 35327 ft 498 kts 69°
2026-05-06 15:49 47.14443 -49.42090 35321 ft 498 kts 69°
2026-05-06 15:50 47.16796 -49.32510 35311 ft 498 kts 69°
2026-05-06 15:50 47.19137 -49.22938 35306 ft 498 kts 69°
2026-05-06 15:51 47.21470 -49.13359 35317 ft 498 kts 69°
2026-05-06 15:51 47.23796 -49.03766 35306 ft 498 kts 68°
2026-05-06 15:52 47.26115 -48.94161 35305 ft 498 kts 68°
2026-05-06 15:52 47.28429 -48.84536 35309 ft 498 kts 69°
2026-05-06 15:53 47.30734 -48.74907 35310 ft 499 kts 69°
2026-05-06 15:53 47.33013 -48.65343 35312 ft 499 kts 68°
2026-05-06 15:54 47.35306 -48.55680 35302 ft 499 kts 68°
2026-05-06 15:54 47.37594 -48.45994 35301 ft 500 kts 68°
2026-05-06 15:55 47.39506 -48.37869 35302 ft 500 kts 68°
2026-05-06 15:55 47.42145 -48.26601 35307 ft 500 kts 68°
2026-05-06 15:56 47.44409 -48.16885 35298 ft 500 kts 68°
2026-05-06 15:56 47.46300 -48.08740 35299 ft 500 kts 68°
2026-05-06 15:57 47.48528 -47.99025 35307 ft 500 kts 69°
2026-05-06 15:57 47.50740 -47.89339 35317 ft 500 kts 68°
2026-05-06 15:58 47.52992 -47.79603 35300 ft 501 kts 68°
2026-05-06 15:58 47.55229 -47.69851 35293 ft 501 kts 68°
2026-05-06 15:59 47.57452 -47.60070 35299 ft 501 kts 68°
2026-05-06 15:59 47.59660 -47.50292 35294 ft 501 kts 68°
2026-05-06 16:00 47.61863 -47.40493 35290 ft 501 kts 68°
2026-05-06 16:00 47.64055 -47.30702 35295 ft 501 kts 68°
2026-05-06 16:01 47.66239 -47.20902 35295 ft 501 kts 68°
2026-05-06 16:01 47.68418 -47.11077 35293 ft 501 kts 68°
2026-05-06 16:02 47.70587 -47.01253 35294 ft 501 kts 68°
2026-05-06 16:02 47.72744 -46.91432 35295 ft 500 kts 68°
2026-05-06 16:03 47.74892 -46.81611 35295 ft 499 kts 68°
2026-05-06 16:03 47.77027 -46.71804 35291 ft 499 kts 68°
2026-05-06 16:04 47.79157 -46.61971 35299 ft 499 kts 68°
2026-05-06 16:04 47.81273 -46.52161 35287 ft 498 kts 68°
2026-05-06 16:05 47.83381 -46.42334 35290 ft 498 kts 68°
2026-05-06 16:05 47.85476 -46.32523 35291 ft 498 kts 68°
2026-05-06 16:06 47.87565 -46.22697 35313 ft 498 kts 68°
2026-05-06 16:06 47.89632 -46.12924 35292 ft 498 kts 68°
2026-05-06 16:07 47.91700 -46.03097 35286 ft 497 kts 68°
2026-05-06 16:07 47.93772 -45.93204 35291 ft 496 kts 68°
2026-05-06 16:08 47.95807 -45.83439 35285 ft 496 kts 68°
2026-05-06 16:08 47.97857 -45.73558 35278 ft 495 kts 68°
2026-05-06 16:09 47.99869 -45.63807 35288 ft 494 kts 68°
2026-05-06 16:09 48.01882 -45.54010 35283 ft 493 kts 68°
2026-05-06 16:10 48.03880 -45.44234 35281 ft 492 kts 68°
2026-05-06 16:10 48.05871 -45.34447 35294 ft 492 kts 68°
2026-05-06 16:11 48.07853 -45.24653 35292 ft 492 kts 68°
2026-05-06 16:11 48.09827 -45.14851 35280 ft 492 kts 68°
2026-05-06 16:12 48.11793 -45.05039 35274 ft 492 kts 68°
2026-05-06 16:12 48.13746 -44.95243 35305 ft 492 kts 68°
2026-05-06 16:13 48.15695 -44.85420 35282 ft 492 kts 68°
2026-05-06 16:13 48.17638 -44.75577 35277 ft 492 kts 68°
2026-05-06 16:14 48.19572 -44.65728 35273 ft 492 kts 68°
2026-05-06 16:14 48.21496 -44.55876 35273 ft 493 kts 68°
2026-05-06 16:15 48.23414 -44.46011 35277 ft 493 kts 68°
2026-05-06 16:15 48.25328 -44.36112 35264 ft 494 kts 68°
2026-05-06 16:16 48.27229 -44.26227 35267 ft 493 kts 68°
2026-05-06 16:16 48.29125 -44.16320 35269 ft 493 kts 68°
2026-05-06 16:17 48.31012 -44.06406 35270 ft 494 kts 68°
2026-05-06 16:17 48.32887 -43.96499 35263 ft 493 kts 68°
2026-05-06 16:18 48.34755 -43.86582 35258 ft 492 kts 68°
2026-05-06 16:18 48.36607 -43.76696 35252 ft 491 kts 68°
2026-05-06 16:19 48.38453 -43.66793 35252 ft 491 kts 68°
2026-05-06 16:19 48.40287 -43.56901 35254 ft 491 kts 68°
2026-05-06 16:20 48.42111 -43.47006 35248 ft 490 kts 68°
2026-05-06 16:20 48.43922 -43.37133 35250 ft 489 kts 68°
2026-05-06 16:21 48.45714 -43.27308 35247 ft 489 kts 68°
2026-05-06 16:21 48.47520 -43.17359 35248 ft 489 kts 68°
2026-05-06 16:22 48.49295 -43.07521 35245 ft 490 kts 68°
2026-05-06 16:22 48.51075 -42.97605 35253 ft 490 kts 68°
2026-05-06 16:23 48.52844 -42.87686 35243 ft 489 kts 68°
2026-05-06 16:23 48.54602 -42.77779 35303 ft 489 kts 68°
2026-05-06 16:24 48.56352 -42.67867 35249 ft 488 kts 67°
2026-05-06 16:24 48.58085 -42.57988 35239 ft 486 kts 67°
2026-05-06 16:25 48.59808 -42.48118 35236 ft 485 kts 67°
2026-05-06 16:25 48.61517 -42.38276 35236 ft 484 kts 67°
2026-05-06 16:26 48.63218 -42.28422 35236 ft 485 kts 67°
2026-05-06 16:26 48.64911 -42.18569 35241 ft 485 kts 67°
2026-05-06 16:27 48.66600 -42.08674 35234 ft 485 kts 68°
2026-05-06 16:27 48.68280 -41.98777 35240 ft 486 kts 68°
2026-05-06 16:28 48.69952 -41.88864 35264 ft 487 kts 68°
2026-05-06 16:28 48.71615 -41.78959 35235 ft 489 kts 68°
2026-05-06 16:29 48.73291 -41.68911 35229 ft 490 kts 68°
2026-05-06 16:29 48.74951 -41.58892 35225 ft 490 kts 68°
2026-05-06 16:30 48.76324 -41.50569 35225 ft 490 kts 68°
2026-05-06 16:30 48.78235 -41.38911 35231 ft 491 kts 68°
2026-05-06 16:31 48.79875 -41.28851 35223 ft 492 kts 68°
2026-05-06 16:31 48.81509 -41.18759 35218 ft 493 kts 68°
2026-05-06 16:32 48.83143 -41.08602 35218 ft 493 kts 68°
2026-05-06 16:32 48.84759 -40.98495 35254 ft 493 kts 68°
2026-05-06 16:33 48.86362 -40.88415 35217 ft 494 kts 68°
2026-05-06 16:34 48.88767 -40.73172 35209 ft 495 kts 68°
2026-05-06 16:34 48.90361 -40.62988 35208 ft 496 kts 68°
2026-05-06 16:35 48.91947 -40.52793 35253 ft 496 kts 68°
2026-05-06 16:35 48.93529 -40.42559 35215 ft 497 kts 68°
2026-05-06 16:36 48.95101 -40.32320 35206 ft 497 kts 68°
2026-05-06 16:36 48.96667 -40.22058 35204 ft 497 kts 68°
2026-05-06 16:37 48.98221 -40.11813 35205 ft 497 kts 68°
2026-05-06 16:37 48.99779 -40.01568 35205 ft 496 kts 66°
2026-05-06 16:38 49.01968 -39.91757 35214 ft 486 kts 59°
2026-05-06 16:38 49.04432 -39.82176 35198 ft 486 kts 59°
2026-05-06 16:39 49.06879 -39.72579 35192 ft 485 kts 59°
2026-05-06 16:39 49.09287 -39.62969 35214 ft 485 kts 59°
2026-05-06 16:40 49.11681 -39.53327 35202 ft 486 kts 59°
2026-05-06 16:40 49.14068 -39.43661 35192 ft 487 kts 59°
2026-05-06 16:41 49.16449 -39.33976 35186 ft 488 kts 59°
2026-05-06 16:41 49.18427 -39.25904 35227 ft 488 kts 59°
2026-05-06 16:42 49.20805 -39.16166 35192 ft 490 kts 60°
2026-05-06 16:42 49.23180 -39.06391 35182 ft 491 kts 60°
2026-05-06 16:43 49.25551 -38.96584 35180 ft 491 kts 60°
2026-05-06 16:43 49.27915 -38.86766 35178 ft 491 kts 60°
2026-05-06 16:44 49.30269 -38.76947 35172 ft 492 kts 60°
2026-05-06 16:44 49.32618 -38.67103 35173 ft 491 kts 60°
2026-05-06 16:45 49.35334 -38.55664 35170 ft 491 kts 60°
2026-05-06 16:45 49.37287 -38.47406 35170 ft 491 kts 60°
2026-05-06 16:46 49.39607 -38.37555 35176 ft 492 kts 61°
2026-05-06 16:46 49.41921 -38.27682 35169 ft 491 kts 61°
2026-05-06 16:47 49.44207 -38.17877 35173 ft 490 kts 61°
2026-05-06 16:47 49.46496 -38.08022 35168 ft 490 kts 61°
2026-05-06 16:48 49.48779 -37.98149 35173 ft 491 kts 62°
2026-05-06 16:48 49.51055 -37.88263 35163 ft 490 kts 62°
2026-05-06 16:49 49.53325 -37.78352 35151 ft 491 kts 62°
2026-05-06 16:49 49.55587 -37.68429 35156 ft 491 kts 62°
2026-05-06 16:50 49.57838 -37.58510 35175 ft 492 kts 63°
2026-05-06 16:50 49.60094 -37.48526 35161 ft 494 kts 63°
2026-05-06 16:51 49.62347 -37.38503 35150 ft 495 kts 63°
2026-05-06 16:51 49.64592 -37.28468 35147 ft 496 kts 63°
2026-05-06 16:52 49.66842 -37.18380 35187 ft 497 kts 64°
2026-05-06 16:52 49.69088 -37.08263 35151 ft 499 kts 64°
2026-05-06 16:53 49.71326 -36.98103 35147 ft 500 kts 64°
2026-05-06 16:53 49.73556 -36.87930 35141 ft 500 kts 64°
2026-05-06 16:54 49.75779 -36.77746 35142 ft 500 kts 64°
2026-05-06 16:54 49.77998 -36.67535 35148 ft 501 kts 65°
2026-05-06 16:55 49.80205 -36.57323 35137 ft 501 kts 65°
2026-05-06 16:55 49.82406 -36.47088 35137 ft 501 kts 65°
2026-05-06 16:56 49.84599 -36.36840 35133 ft 501 kts 65°
2026-05-06 16:56 49.86766 -36.26668 35129 ft 501 kts 66°
2026-05-06 16:57 49.88938 -36.16418 35124 ft 501 kts 66°
2026-05-06 16:57 49.91104 -36.06139 35130 ft 501 kts 66°
2026-05-06 16:58 49.93257 -35.95873 35124 ft 501 kts 66°
2026-05-06 16:58 49.95403 -35.85593 35128 ft 501 kts 67°
2026-05-06 16:59 49.97543 -35.75286 35124 ft 501 kts 68°
2026-05-06 16:59 49.99667 -35.64996 35114 ft 501 kts 68°
2026-05-06 17:00 50.01790 -35.54665 35113 ft 501 kts 68°
2026-05-06 17:00 50.03895 -35.44367 35127 ft 501 kts 68°
2026-05-06 17:01 50.05996 -35.34036 35113 ft 501 kts 68°
2026-05-06 17:01 50.08090 -35.23679 35105 ft 501 kts 68°
2026-05-06 17:02 50.10178 -35.13301 35102 ft 501 kts 68°
2026-05-06 17:02 50.12253 -35.02934 35125 ft 501 kts 69°
2026-05-06 17:03 50.14320 -34.92553 35108 ft 501 kts 69°
2026-05-06 17:03 50.16374 -34.82176 35089 ft 501 kts 69°
2026-05-06 17:04 50.18419 -34.71790 35095 ft 501 kts 69°
2026-05-06 17:04 50.20442 -34.61463 35089 ft 501 kts 69°
2026-05-06 17:05 50.22481 -34.50994 35093 ft 501 kts 69°
2026-05-06 17:05 50.24483 -34.40665 35089 ft 501 kts 69°
2026-05-06 17:06 50.26489 -34.30255 35090 ft 501 kts 70°
2026-05-06 17:06 50.28488 -34.19826 35097 ft 501 kts 70°
2026-05-06 17:07 50.30479 -34.09385 35089 ft 501 kts 70°
2026-05-06 17:07 50.32456 -33.98953 35088 ft 501 kts 70°
2026-05-06 17:08 50.34428 -33.88488 35084 ft 501 kts 70°
2026-05-06 17:08 50.36387 -33.78038 35083 ft 501 kts 70°
2026-05-06 17:09 50.38337 -33.67578 35092 ft 501 kts 71°
2026-05-06 17:09 50.40281 -33.57091 35082 ft 501 kts 71°
2026-05-06 17:10 50.42211 -33.46613 35079 ft 500 kts 71°
2026-05-06 17:10 50.44131 -33.36138 35078 ft 500 kts 71°
2026-05-06 17:11 50.46044 -33.25641 35091 ft 500 kts 72°
2026-05-06 17:11 50.47944 -33.15149 35080 ft 499 kts 72°
2026-05-06 17:12 50.49833 -33.04662 35071 ft 499 kts 72°
2026-05-06 17:12 50.51712 -32.94170 35069 ft 499 kts 72°
2026-05-06 17:13 50.53579 -32.83681 35083 ft 498 kts 72°
2026-05-06 17:13 50.55425 -32.73255 35060 ft 498 kts 72°
2026-05-06 17:14 50.57273 -32.62751 35063 ft 498 kts 72°
2026-05-06 17:14 50.59105 -32.52274 35057 ft 498 kts 72°
2026-05-06 17:15 50.60931 -32.41772 35059 ft 498 kts 73°
2026-05-06 17:15 50.62750 -32.31252 35050 ft 498 kts 73°
2026-05-06 17:16 50.64559 -32.20720 35051 ft 498 kts 73°
2026-05-06 17:16 50.66361 -32.10169 35048 ft 499 kts 73°
2026-05-06 17:17 50.68152 -31.99621 35042 ft 499 kts 73°
2026-05-06 17:17 50.69938 -31.89035 35048 ft 499 kts 74°
2026-05-06 17:18 50.71717 -31.78425 35044 ft 500 kts 74°
2026-05-06 17:18 50.73486 -31.67812 35035 ft 500 kts 74°
2026-05-06 17:19 50.75245 -31.57192 35033 ft 500 kts 74°
2026-05-06 17:19 50.76994 -31.46561 35030 ft 500 kts 74°
2026-05-06 17:20 50.78736 -31.35910 35021 ft 501 kts 74°
2026-05-06 17:20 50.80469 -31.25248 35017 ft 501 kts 75°
2026-05-06 17:21 50.82189 -31.14594 35016 ft 500 kts 75°
2026-05-06 17:21 50.83902 -31.03923 35013 ft 500 kts 75°
2026-05-06 17:22 50.85592 -30.93320 35003 ft 500 kts 75°
2026-05-06 17:22 50.87282 -30.82655 35007 ft 500 kts 75°
2026-05-06 17:23 50.88964 -30.71965 35001 ft 500 kts 75°
2026-05-06 17:23 50.90636 -30.61272 34999 ft 500 kts 75°
2026-05-06 17:24 50.92299 -30.50565 34996 ft 500 kts 75°
2026-05-06 17:24 50.93952 -30.39847 34986 ft 500 kts 76°
2026-05-06 17:25 50.95595 -30.29124 34984 ft 501 kts 76°
2026-05-06 17:25 50.97231 -30.18376 34975 ft 501 kts 76°
2026-05-06 17:26 50.98856 -30.07626 34974 ft 501 kts 76°
2026-05-06 17:26 51.00471 -29.96857 34962 ft 502 kts 76°
2026-05-06 17:27 51.02040 -29.86061 34963 ft 502 kts 77°
2026-05-06 17:27 51.03582 -29.75270 34963 ft 502 kts 77°
2026-05-06 17:28 51.05119 -29.64461 34960 ft 501 kts 77°
2026-05-06 17:28 51.06649 -29.53658 34959 ft 501 kts 77°
2026-05-06 17:29 51.08169 -29.42854 34949 ft 500 kts 77°
2026-05-06 17:29 51.09667 -29.32127 34955 ft 500 kts 77°
2026-05-06 17:30 51.11174 -29.21255 34949 ft 500 kts 77°
2026-05-06 17:30 51.12411 -29.12275 34950 ft 500 kts 78°
2026-05-06 17:31 51.14130 -28.99694 34946 ft 500 kts 78°
2026-05-06 17:31 51.15599 -28.88865 34931 ft 500 kts 78°
2026-05-06 17:32 51.16822 -28.79782 34933 ft 500 kts 78°
2026-05-06 17:32 51.18271 -28.68947 34935 ft 499 kts 78°
2026-05-06 17:33 51.19697 -28.58206 34924 ft 498 kts 78°
2026-05-06 17:33 51.21117 -28.47423 34920 ft 497 kts 78°
2026-05-06 17:34 51.22526 -28.36647 34913 ft 496 kts 78°
2026-05-06 17:34 51.23922 -28.25886 34916 ft 495 kts 78°
2026-05-06 17:35 51.25307 -28.15132 34920 ft 494 kts 79°
2026-05-06 17:35 51.26679 -28.04393 34917 ft 494 kts 79°
2026-05-06 17:36 51.28717 -27.88285 34924 ft 493 kts 79°
2026-05-06 17:36 51.30064 -27.77533 34919 ft 493 kts 79°
2026-05-06 17:37 51.31400 -27.66781 34921 ft 493 kts 79°
2026-05-06 17:37 51.32729 -27.56007 34920 ft 494 kts 79°
2026-05-06 17:38 51.34046 -27.45242 34922 ft 494 kts 79°
2026-05-06 17:38 51.35355 -27.34454 34922 ft 494 kts 79°
2026-05-06 17:39 51.36654 -27.23657 34922 ft 494 kts 80°
2026-05-06 17:39 51.37935 -27.12924 34933 ft 495 kts 80°
2026-05-06 17:40 51.39216 -27.02103 34930 ft 495 kts 80°
2026-05-06 17:40 51.40489 -26.91254 34932 ft 496 kts 80°
2026-05-06 17:41 51.41753 -26.80399 34924 ft 495 kts 80°
2026-05-06 17:41 51.43004 -26.69565 34932 ft 495 kts 80°
2026-05-06 17:42 51.44245 -26.58716 34938 ft 494 kts 80°
2026-05-06 17:42 51.45474 -26.47881 34937 ft 494 kts 81°
2026-05-06 17:43 51.46694 -26.37036 34932 ft 494 kts 81°
2026-05-06 17:43 51.47902 -26.26198 34949 ft 495 kts 81°
2026-05-06 17:44 51.49103 -26.15330 34950 ft 495 kts 81°
2026-05-06 17:44 51.50295 -26.04440 34959 ft 496 kts 81°
2026-05-06 17:45 51.51479 -25.93532 34952 ft 496 kts 81°
2026-05-06 17:45 51.52654 -25.82609 34961 ft 496 kts 81°
2026-05-06 17:46 51.53816 -25.71705 34958 ft 495 kts 81°
2026-05-06 17:46 51.54968 -25.60801 34961 ft 494 kts 81°
2026-05-06 17:47 51.56103 -25.49945 34959 ft 493 kts 81°
2026-05-06 17:47 51.57228 -25.39094 34971 ft 492 kts 82°
2026-05-06 17:48 51.58342 -25.28240 34969 ft 492 kts 82°
2026-05-06 17:48 51.59445 -25.17390 34979 ft 491 kts 82°
2026-05-06 17:49 51.60537 -25.06552 34975 ft 492 kts 82°
2026-05-06 17:49 51.61621 -24.95679 34978 ft 492 kts 82°
2026-05-06 17:50 51.62688 -24.84882 34980 ft 492 kts 82°
2026-05-06 17:50 51.63749 -24.74030 34981 ft 491 kts 82°
2026-05-06 17:51 51.64801 -24.63174 34984 ft 490 kts 82°
2026-05-06 17:51 51.65840 -24.52337 34985 ft 490 kts 82°
2026-05-06 17:52 51.66870 -24.41489 34988 ft 489 kts 82°
2026-05-06 17:52 51.67884 -24.30689 34985 ft 488 kts 82°
2026-05-06 17:53 51.68890 -24.19875 34993 ft 488 kts 82°
2026-05-06 17:53 51.69889 -24.09015 34999 ft 489 kts 83°
2026-05-06 17:54 51.70876 -23.98182 34994 ft 489 kts 83°
2026-05-06 17:54 51.71854 -23.87332 35010 ft 489 kts 83°
2026-05-06 17:55 51.72822 -23.76469 34995 ft 489 kts 83°
2026-05-06 17:55 51.73779 -23.65625 35000 ft 489 kts 83°
2026-05-06 17:56 51.74726 -23.54764 35006 ft 488 kts 83°
2026-05-06 17:56 51.75662 -23.43918 35003 ft 488 kts 83°
2026-05-06 17:57 51.76588 -23.33064 34997 ft 488 kts 83°
2026-05-06 17:57 51.77506 -23.22187 35009 ft 489 kts 84°
2026-05-06 17:58 51.78413 -23.11311 35003 ft 489 kts 84°
2026-05-06 17:58 51.79312 -23.00410 35001 ft 490 kts 84°
2026-05-06 17:59 51.80200 -22.89513 35000 ft 490 kts 84°
2026-05-06 17:59 51.81080 -22.78582 35013 ft 490 kts 84°
2026-05-06 18:00 51.81943 -22.67735 35000 ft 491 kts 84°
2026-05-06 18:00 51.82804 -22.56791 35013 ft 491 kts 84°
2026-05-06 18:01 51.83655 -22.45835 35019 ft 491 kts 84°
2026-05-06 18:01 51.84496 -22.34880 35010 ft 490 kts 85°
2026-05-06 18:02 51.85324 -22.23941 35005 ft 490 kts 85°
2026-05-06 18:02 51.86141 -22.13021 35016 ft 489 kts 85°
2026-05-06 18:03 51.86948 -22.02095 35016 ft 489 kts 85°
2026-05-06 18:03 51.87744 -21.91184 35015 ft 488 kts 85°
2026-05-06 18:04 51.88528 -21.80282 35016 ft 487 kts 86°
2026-05-06 18:04 51.89300 -21.69417 35014 ft 486 kts 86°
2026-05-06 18:05 51.90060 -21.58559 35016 ft 485 kts 86°
2026-05-06 18:05 51.90808 -21.47733 35012 ft 484 kts 86°
2026-05-06 18:06 51.91547 -21.36904 35011 ft 483 kts 86°
2026-05-06 18:06 51.92274 -21.26077 35083 ft 486 kts 86°
2026-05-06 18:07 51.92636 -21.20627 35367 ft 487 kts 86°
2026-05-06 18:07 51.92996 -21.15166 35708 ft 487 kts 86°
2026-05-06 18:07 51.93353 -21.09724 36045 ft 486 kts 86°
2026-05-06 18:07 51.93709 -21.04269 36351 ft 487 kts 86°
2026-05-06 18:08 51.94062 -20.98809 36622 ft 488 kts 86°
2026-05-06 18:08 51.94413 -20.93333 36865 ft 489 kts 86°
2026-05-06 18:08 51.95107 -20.82392 37007 ft 493 kts 86°
2026-05-06 18:09 51.95797 -20.71376 36998 ft 489 kts 86°
2026-05-06 18:09 51.96470 -20.60441 37003 ft 486 kts 86°
2026-05-06 18:10 51.97130 -20.49549 37003 ft 485 kts 86°
2026-05-06 18:10 51.97779 -20.38662 37008 ft 485 kts 86°
2026-05-06 18:11 51.98315 -20.29545 37009 ft 486 kts 86°
2026-05-06 18:11 51.99049 -20.16843 36996 ft 487 kts 86°
2026-05-06 18:12 51.99673 -20.05882 37009 ft 489 kts 86°
2026-05-06 18:12 52.00169 -19.94887 36999 ft 489 kts 89°
2026-05-06 18:13 52.00389 -19.83846 37012 ft 489 kts 90°
2026-05-06 18:13 52.00565 -19.72819 37011 ft 489 kts 90°
2026-05-06 18:14 52.00751 -19.61792 37000 ft 489 kts 90°
2026-05-06 18:14 52.00941 -19.50773 36999 ft 488 kts 90°
2026-05-06 18:15 52.01124 -19.39789 37003 ft 487 kts 90°
2026-05-06 18:15 52.01297 -19.28807 36996 ft 486 kts 90°
2026-05-06 18:16 52.01458 -19.17839 37006 ft 485 kts 90°
2026-05-06 18:16 52.01609 -19.06907 37001 ft 484 kts 90°
2026-05-06 18:17 52.01748 -18.96037 37000 ft 484 kts 90°
2026-05-06 18:17 52.01877 -18.85128 37001 ft 484 kts 90°
2026-05-06 18:18 52.01997 -18.74209 36994 ft 484 kts 90°
2026-05-06 18:18 52.02107 -18.63277 37001 ft 484 kts 90°
2026-05-06 18:19 52.02207 -18.52365 37000 ft 484 kts 90°
2026-05-06 18:19 52.02296 -18.41439 36999 ft 484 kts 90°
2026-05-06 18:20 52.02376 -18.30508 36998 ft 484 kts 90°
2026-05-06 18:20 52.02445 -18.19573 36991 ft 484 kts 90°
2026-05-06 18:21 52.02495 -18.10485 36996 ft 484 kts 90°
2026-05-06 18:21 52.02546 -17.99573 36998 ft 484 kts 90°
2026-05-06 18:22 52.02587 -17.88639 36984 ft 484 kts 90°
2026-05-06 18:22 52.02617 -17.77726 36992 ft 483 kts 90°
2026-05-06 18:23 52.02638 -17.66844 36993 ft 482 kts 90°
2026-05-06 18:23 52.02649 -17.55939 36994 ft 482 kts 90°
2026-05-06 18:24 52.02649 -17.45055 36993 ft 481 kts 91°
2026-05-06 18:24 52.02639 -17.34205 37001 ft 481 kts 90°
2026-05-06 18:25 52.02620 -17.23348 36993 ft 480 kts 90°
2026-05-06 18:25 52.02590 -17.12506 36993 ft 480 kts 91°
2026-05-06 18:26 52.02551 -17.01672 36994 ft 480 kts 91°
2026-05-06 18:26 52.02502 -16.90850 36984 ft 480 kts 91°
2026-05-06 18:27 52.02442 -16.80024 36989 ft 479 kts 90°
2026-05-06 18:27 52.02373 -16.69203 36985 ft 479 kts 90°
2026-05-06 18:28 52.02295 -16.58392 36994 ft 479 kts 90°
2026-05-06 18:28 52.02206 -16.47570 36996 ft 479 kts 90°
2026-05-06 18:29 52.02107 -16.36754 36997 ft 479 kts 91°
2026-05-06 18:29 52.01998 -16.25942 36996 ft 479 kts 90°
2026-05-06 18:30 52.01880 -16.15208 36987 ft 479 kts 90°
2026-05-06 18:30 52.01752 -16.04405 36992 ft 478 kts 90°
2026-05-06 18:31 52.01614 -15.93621 36998 ft 478 kts 90°
2026-05-06 18:31 52.01466 -15.82825 37005 ft 478 kts 90°
2026-05-06 18:32 52.01308 -15.72041 36992 ft 478 kts 90°
2026-05-06 18:32 52.01141 -15.61254 36995 ft 478 kts 90°
2026-05-06 18:33 52.00964 -15.50490 36991 ft 478 kts 90°
2026-05-06 18:33 52.00777 -15.39732 36992 ft 477 kts 90°
2026-05-06 18:34 52.00580 -15.28951 36989 ft 477 kts 90°
2026-05-06 18:34 52.00373 -15.18201 36990 ft 476 kts 90°
2026-05-06 18:35 52.00158 -15.07467 36990 ft 476 kts 91°
2026-05-06 18:35 51.99951 -14.96730 36997 ft 475 kts 89°
2026-05-06 18:36 51.99978 -14.86025 37001 ft 474 kts 88°
2026-05-06 18:36 52.00062 -14.75339 37002 ft 474 kts 88°
2026-05-06 18:37 52.00102 -14.64696 36999 ft 474 kts 88°
2026-05-06 18:37 52.00111 -14.54002 36989 ft 474 kts 89°
2026-05-06 18:38 52.00107 -14.43231 36999 ft 474 kts 89°
2026-05-06 18:38 52.00095 -14.32535 36994 ft 474 kts 89°
2026-05-06 18:39 52.00074 -14.21902 36998 ft 474 kts 89°
2026-05-06 18:40 52.00013 -14.05862 37005 ft 474 kts 91°
2026-05-06 18:40 51.99112 -13.95248 37007 ft 476 kts 102°
2026-05-06 18:41 51.97181 -13.84966 37004 ft 477 kts 107°
2026-05-06 18:41 51.95134 -13.74717 36998 ft 477 kts 106°
2026-05-06 18:42 51.93104 -13.64483 36996 ft 477 kts 106°
2026-05-06 18:42 51.91088 -13.54247 36997 ft 477 kts 106°
2026-05-06 18:43 51.89072 -13.44018 36994 ft 477 kts 106°
2026-05-06 18:43 51.87048 -13.33810 36997 ft 476 kts 106°
2026-05-06 18:44 51.85013 -13.23598 37008 ft 476 kts 106°
2026-05-06 18:44 51.82970 -13.13408 36998 ft 476 kts 106°
2026-05-06 18:45 51.80916 -13.03217 36998 ft 476 kts 106°
2026-05-06 18:45 51.78859 -12.93060 37004 ft 475 kts 106°
2026-05-06 18:46 51.76795 -12.82921 37003 ft 475 kts 106°
2026-05-06 18:46 51.74724 -12.72803 37005 ft 474 kts 106°
2026-05-06 18:47 51.72649 -12.62716 37010 ft 474 kts 106°
2026-05-06 18:47 51.70581 -12.52710 37007 ft 474 kts 107°
2026-05-06 18:48 51.68473 -12.42563 37008 ft 474 kts 107°
2026-05-06 18:48 51.66387 -12.32574 37008 ft 474 kts 107°
2026-05-06 18:49 51.64261 -12.22449 37010 ft 474 kts 107°
2026-05-06 18:49 51.62160 -12.12484 37016 ft 474 kts 107°
2026-05-06 18:50 51.60034 -12.02456 37008 ft 473 kts 107°
2026-05-06 18:50 51.57899 -11.92432 37007 ft 473 kts 107°
2026-05-06 18:51 51.55763 -11.82458 37007 ft 473 kts 107°
2026-05-06 18:51 51.53615 -11.72469 37008 ft 472 kts 107°
2026-05-06 18:52 51.51462 -11.62509 37012 ft 472 kts 107°
2026-05-06 18:52 51.49300 -11.52558 37014 ft 472 kts 107°
2026-05-06 18:53 51.47128 -11.42607 37014 ft 472 kts 108°
2026-05-06 18:53 51.44952 -11.32684 37010 ft 472 kts 108°
2026-05-06 18:54 51.42762 -11.22751 37013 ft 472 kts 108°
2026-05-06 18:54 51.40571 -11.12854 37010 ft 472 kts 108°
2026-05-06 18:55 51.38369 -11.02957 37018 ft 471 kts 108°
2026-05-06 18:55 51.36162 -10.93087 37010 ft 472 kts 108°
2026-05-06 18:56 51.33943 -10.83208 37011 ft 472 kts 108°
2026-05-06 18:56 51.31717 -10.73341 37008 ft 472 kts 108°
2026-05-06 18:57 51.29481 -10.63480 37010 ft 472 kts 108°
2026-05-06 18:57 51.27237 -10.53627 37015 ft 472 kts 108°
2026-05-06 18:58 51.24981 -10.43768 37006 ft 473 kts 108°
2026-05-06 18:58 51.22714 -10.33910 37010 ft 474 kts 108°
2026-05-06 18:59 51.20435 -10.24041 37008 ft 474 kts 108°
2026-05-06 18:59 51.18142 -10.14163 37009 ft 475 kts 108°
2026-05-06 19:00 51.15844 -10.04303 37005 ft 475 kts 109°
2026-05-06 19:00 51.13535 -9.94445 37004 ft 475 kts 109°
2026-05-06 19:01 51.11231 -9.84652 37005 ft 476 kts 109°
2026-05-06 19:01 51.08902 -9.74800 37006 ft 476 kts 109°
2026-05-06 19:02 51.06563 -9.64948 37006 ft 477 kts 109°
2026-05-06 19:02 51.04211 -9.55087 37008 ft 477 kts 109°
2026-05-06 19:03 51.01853 -9.45244 37005 ft 477 kts 109°
2026-05-06 19:03 50.99483 -9.35400 37006 ft 477 kts 109°
2026-05-06 19:04 50.97102 -9.25549 37006 ft 478 kts 109°
2026-05-06 19:04 50.94713 -9.15711 36998 ft 478 kts 110°
2026-05-06 19:05 50.92311 -9.05868 37005 ft 479 kts 110°
2026-05-06 19:05 50.89901 -8.96030 37007 ft 479 kts 110°
2026-05-06 19:06 50.87479 -8.86193 37002 ft 480 kts 110°
2026-05-06 19:06 50.85042 -8.76333 37004 ft 481 kts 110°
2026-05-06 19:07 50.82596 -8.66484 37005 ft 481 kts 110°
2026-05-06 19:07 50.80136 -8.56625 37006 ft 481 kts 110°
2026-05-06 19:08 50.78089 -8.48450 37005 ft 481 kts 110°
2026-05-06 19:08 50.75619 -8.38628 37002 ft 482 kts 111°
2026-05-06 19:09 50.73138 -8.28806 37008 ft 482 kts 111°
2026-05-06 19:09 50.70647 -8.18985 37006 ft 482 kts 111°
2026-05-06 19:10 50.68146 -8.09166 37008 ft 482 kts 111°
2026-05-06 19:10 50.65640 -7.99366 37008 ft 482 kts 111°
2026-05-06 19:11 50.63284 -7.89470 37009 ft 482 kts 109°
2026-05-06 19:11 50.61030 -7.79513 37002 ft 483 kts 109°
2026-05-06 19:12 50.58755 -7.69564 37008 ft 484 kts 109°
2026-05-06 19:12 50.56445 -7.59624 37010 ft 484 kts 110°
2026-05-06 19:13 50.54108 -7.49670 37008 ft 485 kts 110°
2026-05-06 19:13 50.51767 -7.39741 37008 ft 486 kts 110°
2026-05-06 19:14 50.49415 -7.29810 37009 ft 486 kts 110°
2026-05-06 19:14 50.47042 -7.19834 37014 ft 486 kts 110°
2026-05-06 19:15 50.44672 -7.09911 37011 ft 487 kts 110°
2026-05-06 19:15 50.42286 -6.99969 37012 ft 487 kts 110°
2026-05-06 19:16 50.39912 -6.90123 37015 ft 487 kts 110°
2026-05-06 19:16 50.37510 -6.80206 37016 ft 487 kts 110°
2026-05-06 19:17 50.35099 -6.70293 37017 ft 487 kts 110°
2026-05-06 19:17 50.32681 -6.60399 37016 ft 487 kts 111°
2026-05-06 19:18 50.30253 -6.50509 37020 ft 487 kts 111°
2026-05-06 19:18 50.27815 -6.40622 37019 ft 487 kts 111°
2026-05-06 19:19 50.25369 -6.30747 37015 ft 487 kts 111°
2026-05-06 19:19 50.22913 -6.20874 37012 ft 487 kts 111°
2026-05-06 19:20 50.20445 -6.10994 37022 ft 487 kts 111°
2026-05-06 19:20 50.17974 -6.01150 37013 ft 488 kts 111°
2026-05-06 19:21 50.15491 -5.91302 37013 ft 488 kts 111°
2026-05-06 19:21 50.12999 -5.81459 37008 ft 488 kts 111°
2026-05-06 19:22 50.10499 -5.71628 37008 ft 488 kts 111°
2026-05-06 19:22 50.07988 -5.61797 37000 ft 489 kts 111°
2026-05-06 19:23 50.05467 -5.51972 36989 ft 489 kts 112°
2026-05-06 19:23 50.02939 -5.42159 36995 ft 489 kts 112°
2026-05-06 19:24 50.00401 -5.32349 36997 ft 489 kts 112°
2026-05-06 19:24 49.97867 -5.22599 36996 ft 489 kts 112°
2026-05-06 19:25 49.95310 -5.12804 36995 ft 490 kts 112°
2026-05-06 19:25 49.92745 -5.03017 37002 ft 490 kts 112°
2026-05-06 19:26 49.90168 -4.93228 37008 ft 490 kts 112°
2026-05-06 19:26 49.87585 -4.83458 37012 ft 490 kts 112°
2026-05-06 19:27 49.84996 -4.73705 37006 ft 489 kts 112°
2026-05-06 19:27 49.82396 -4.63953 37012 ft 489 kts 112°
2026-05-06 19:28 49.79792 -4.54228 37013 ft 489 kts 112°
2026-05-06 19:28 49.77182 -4.44520 37009 ft 490 kts 113°
2026-05-06 19:29 49.74557 -4.34795 37012 ft 490 kts 113°
2026-05-06 19:29 49.71923 -4.25079 37011 ft 490 kts 113°
2026-05-06 19:30 49.69283 -4.15382 37010 ft 490 kts 113°
2026-05-06 19:30 49.66663 -4.05727 36999 ft 490 kts 111°
2026-05-06 19:31 49.64842 -3.95554 37014 ft 490 kts 100°
2026-05-06 19:31 49.63802 -3.79875 37008 ft 490 kts 94°
2026-05-06 19:32 49.63202 -3.69409 37005 ft 490 kts 95°
2026-05-06 19:32 49.62561 -3.58939 37006 ft 490 kts 95°
2026-05-06 19:33 49.61893 -3.48483 37005 ft 490 kts 95°
2026-05-06 19:33 49.61212 -3.38016 37005 ft 490 kts 95°
2026-05-06 19:34 49.60530 -3.27655 37005 ft 489 kts 95°
2026-05-06 19:34 49.59834 -3.17218 37005 ft 489 kts 95°
2026-05-06 19:35 49.59129 -3.06769 37006 ft 489 kts 96°
2026-05-06 19:35 49.58418 -2.96382 37005 ft 489 kts 96°
2026-05-06 19:36 49.57694 -2.85951 37005 ft 489 kts 96°
2026-05-06 19:36 49.56962 -2.75531 36997 ft 489 kts 96°
2026-05-06 19:37 49.56220 -2.65120 36998 ft 489 kts 96°
2026-05-06 19:37 49.55597 -2.56472 36995 ft 489 kts 96°
2026-05-06 19:38 49.54711 -2.44332 36996 ft 488 kts 96°
2026-05-06 19:38 49.53943 -2.33953 37003 ft 488 kts 96°
2026-05-06 19:39 49.53166 -2.23570 37007 ft 489 kts 96°
2026-05-06 19:39 49.52378 -2.13184 37005 ft 489 kts 96°
2026-05-06 19:40 49.51582 -2.02805 37006 ft 488 kts 96°
2026-05-06 19:40 49.50775 -1.92421 36995 ft 488 kts 96°
2026-05-06 19:41 49.49961 -1.82056 37013 ft 488 kts 97°
2026-05-06 19:41 49.49139 -1.71699 37014 ft 488 kts 97°
2026-05-06 19:42 49.48304 -1.61335 37014 ft 488 kts 97°
2026-05-06 19:42 49.47460 -1.51005 37018 ft 487 kts 97°
2026-05-06 19:43 49.46607 -1.40677 37016 ft 487 kts 97°
2026-05-06 19:43 49.45749 -1.30413 37016 ft 487 kts 97°
2026-05-06 19:44 49.44878 -1.20089 37010 ft 487 kts 97°
2026-05-06 19:44 49.43998 -1.09783 37008 ft 487 kts 97°
2026-05-06 19:45 49.43108 -0.99465 37002 ft 487 kts 97°
2026-05-06 19:45 49.42209 -0.89150 37003 ft 487 kts 97°
2026-05-06 19:46 49.41303 -0.78874 37003 ft 487 kts 97°
2026-05-06 19:46 49.40386 -0.68576 36983 ft 487 kts 97°
2026-05-06 19:47 49.39917 -0.63347 36016 ft 500 kts 97°
2026-05-06 19:47 49.39441 -0.58070 35272 ft 499 kts 97°
2026-05-06 19:47 49.38964 -0.52820 34689 ft 494 kts 97°
2026-05-06 19:47 49.38491 -0.47635 34159 ft 488 kts 97°
2026-05-06 19:48 49.38018 -0.42489 33573 ft 483 kts 97°
2026-05-06 19:48 49.37550 -0.37419 33014 ft 477 kts 97°
2026-05-06 19:48 49.37090 -0.32428 32526 ft 471 kts 97°
2026-05-06 19:48 49.36629 -0.27458 32020 ft 466 kts 97°
2026-05-06 19:49 49.36186 -0.22562 31517 ft 461 kts 96°
2026-05-06 19:49 49.35845 -0.17699 31037 ft 456 kts 95°
2026-05-06 19:49 49.35566 -0.12887 30564 ft 451 kts 94°
2026-05-06 19:49 49.35302 -0.08116 30077 ft 447 kts 94°
2026-05-06 19:50 49.35033 -0.03387 29537 ft 443 kts 95°
2026-05-06 19:50 49.34754 0.01293 29038 ft 439 kts 95°
2026-05-06 19:50 49.34468 0.05918 28543 ft 434 kts 95°
2026-05-06 19:50 49.34178 0.10496 28070 ft 430 kts 95°
2026-05-06 19:51 49.33885 0.15039 27598 ft 426 kts 95°
2026-05-06 19:51 49.33592 0.19542 27128 ft 422 kts 95°
2026-05-06 19:51 49.33300 0.24004 26652 ft 419 kts 95°
2026-05-06 19:51 49.33010 0.28432 26186 ft 416 kts 95°
2026-05-06 19:52 49.32719 0.32836 25728 ft 413 kts 95°
2026-05-06 19:52 49.32430 0.37200 25278 ft 410 kts 95°
2026-05-06 19:52 49.32147 0.41472 24835 ft 408 kts 96°
2026-05-06 19:52 49.31857 0.45787 24394 ft 406 kts 96°
2026-05-06 19:53 49.31575 0.50084 23948 ft 404 kts 95°
2026-05-06 19:53 49.31427 0.54424 23499 ft 401 kts 91°
2026-05-06 19:53 49.31383 0.58684 23004 ft 399 kts 90°
2026-05-06 19:53 49.31369 0.62860 22557 ft 396 kts 90°
2026-05-06 19:54 49.31354 0.67055 22136 ft 392 kts 90°
2026-05-06 19:54 49.31328 0.71266 21704 ft 389 kts 90°
2026-05-06 19:54 49.31292 0.75393 21279 ft 386 kts 90°
2026-05-06 19:54 49.31248 0.79432 20867 ft 384 kts 91°
2026-05-06 19:55 49.31198 0.83584 20463 ft 384 kts 91°
2026-05-06 19:55 49.31163 0.86289 20193 ft 383 kts 91°
2026-05-06 19:55 49.31089 0.91682 19649 ft 380 kts 91°
2026-05-06 19:55 49.31032 0.95706 19251 ft 377 kts 91°
2026-05-06 19:56 49.30974 0.99711 18851 ft 374 kts 90°
2026-05-06 19:56 49.30915 1.03679 18449 ft 372 kts 90°
2026-05-06 19:56 49.30875 1.06348 18174 ft 370 kts 90°
2026-05-06 19:56 49.30816 1.10223 17736 ft 367 kts 90°
2026-05-06 19:57 49.30754 1.14166 17315 ft 364 kts 90°
2026-05-06 19:57 49.30693 1.17977 16928 ft 362 kts 90°
2026-05-06 19:57 49.30630 1.21820 16540 ft 361 kts 91°
2026-05-06 19:57 49.30566 1.25659 16154 ft 360 kts 91°
2026-05-06 19:58 49.30502 1.29491 15772 ft 359 kts 91°
2026-05-06 19:58 49.30436 1.33306 15388 ft 356 kts 91°
2026-05-06 19:58 49.30368 1.37074 15008 ft 352 kts 90°
2026-05-06 19:58 49.30301 1.40810 14634 ft 350 kts 90°
2026-05-06 19:59 49.30234 1.44529 14257 ft 348 kts 90°
2026-05-06 19:59 49.30166 1.48225 13892 ft 347 kts 90°
2026-05-06 19:59 49.30097 1.51920 13482 ft 346 kts 90°
2026-05-06 19:59 49.30025 1.55607 13080 ft 345 kts 90°
2026-05-06 20:00 49.29933 1.59251 12829 ft 340 kts 92°
2026-05-06 20:00 49.29773 1.62822 12633 ft 335 kts 93°
2026-05-06 20:00 49.29599 1.66412 12463 ft 338 kts 93°
2026-05-06 20:00 49.29430 1.70028 12254 ft 342 kts 93°
2026-05-06 20:01 49.29265 1.73670 12073 ft 343 kts 93°
2026-05-06 20:01 49.29101 1.77297 11866 ft 341 kts 93°
2026-05-06 20:01 49.28938 1.80898 11668 ft 339 kts 93°
2026-05-06 20:01 49.28774 1.84495 11460 ft 338 kts 93°
2026-05-06 20:02 49.28609 1.88093 11265 ft 337 kts 93°
2026-05-06 20:02 49.28444 1.91668 11067 ft 335 kts 93°
2026-05-06 20:02 49.28280 1.95215 10869 ft 334 kts 93°
2026-05-06 20:02 49.28115 1.98748 10695 ft 331 kts 93°
2026-05-06 20:03 49.27953 2.02212 10490 ft 323 kts 94°
2026-05-06 20:03 49.27792 2.05614 10294 ft 316 kts 94°
2026-05-06 20:03 49.27634 2.08927 10104 ft 308 kts 94°
2026-05-06 20:03 49.27480 2.12157 9927 ft 301 kts 94°
2026-05-06 20:04 49.27328 2.15307 9751 ft 293 kts 94°
2026-05-06 20:04 49.27179 2.18377 9555 ft 286 kts 94°
2026-05-06 20:04 49.27032 2.21404 9390 ft 282 kts 94°
2026-05-06 20:04 49.26887 2.24380 9232 ft 279 kts 94°
2026-05-06 20:05 49.26742 2.27338 9067 ft 277 kts 94°
2026-05-06 20:05 49.26598 2.30267 8906 ft 276 kts 94°
2026-05-06 20:05 49.26453 2.33197 8745 ft 275 kts 94°
2026-05-06 20:05 49.26307 2.36105 8578 ft 274 kts 94°
2026-05-06 20:06 49.26162 2.39000 8425 ft 273 kts 94°
2026-05-06 20:06 49.26017 2.41892 8273 ft 272 kts 94°
2026-05-06 20:06 49.25872 2.44736 8127 ft 272 kts 94°
2026-05-06 20:06 49.25725 2.47625 7949 ft 272 kts 94°
2026-05-06 20:07 49.25577 2.50497 7792 ft 271 kts 94°
2026-05-06 20:07 49.25363 2.53363 7624 ft 271 kts 99°
2026-05-06 20:07 49.25025 2.56196 7471 ft 271 kts 100°
2026-05-06 20:07 49.24667 2.59031 7302 ft 270 kts 100°
2026-05-06 20:08 49.24321 2.61848 7144 ft 270 kts 100°
2026-05-06 20:08 49.23982 2.64664 6992 ft 269 kts 100°
2026-05-06 20:08 49.23646 2.67481 6834 ft 268 kts 99°
2026-05-06 20:08 49.23303 2.70273 6673 ft 268 kts 101°
2026-05-06 20:09 49.22903 2.73044 6511 ft 265 kts 105°
2026-05-06 20:09 49.22161 2.75599 6369 ft 263 kts 119°
2026-05-06 20:09 49.21216 2.78007 6242 ft 266 kts 121°
2026-05-06 20:09 49.20229 2.80424 6091 ft 268 kts 121°
2026-05-06 20:10 49.19238 2.82838 5936 ft 267 kts 122°
2026-05-06 20:10 49.18251 2.85230 5792 ft 265 kts 122°
2026-05-06 20:10 49.17271 2.87590 5659 ft 263 kts 122°
2026-05-06 20:10 49.16289 2.89944 5522 ft 261 kts 122°
2026-05-06 20:11 49.15318 2.92252 5497 ft 258 kts 123°
2026-05-06 20:11 49.14196 2.94446 5354 ft 264 kts 130°
2026-05-06 20:11 49.12971 2.96532 5227 ft 265 kts 131°
2026-05-06 20:11 49.11729 2.98572 5109 ft 256 kts 137°
2026-05-06 20:12 49.10274 3.00061 5031 ft 251 kts 152°
2026-05-06 20:12 49.08732 3.01310 4940 ft 249 kts 152°
2026-05-06 20:12 49.07221 3.02525 4824 ft 242 kts 153°
2026-05-06 20:12 49.05623 3.03266 4795 ft 244 kts 179°
2026-05-06 20:13 49.03984 3.02731 4724 ft 244 kts 208°
2026-05-06 20:13 49.02712 3.01092 4591 ft 237 kts 234°
2026-05-06 20:13 49.01793 2.99037 4466 ft 231 kts 245°
2026-05-06 20:13 49.01412 2.96713 4373 ft 224 kts 268°
2026-05-06 20:14 49.01299 2.94306 4287 ft 231 kts 267°
2026-05-06 20:14 49.01167 2.91892 4299 ft 231 kts 267°
2026-05-06 20:14 49.01037 2.89469 4144 ft 229 kts 267°
2026-05-06 20:14 49.00911 2.87061 3826 ft 224 kts 267°
2026-05-06 20:15 49.00789 2.84759 3530 ft 213 kts 268°
2026-05-06 20:15 49.00670 2.82528 3252 ft 209 kts 268°
2026-05-06 20:15 49.00555 2.80361 3025 ft 203 kts 268°
2026-05-06 20:15 49.00442 2.78225 2750 ft 199 kts 268°
2026-05-06 20:16 49.00332 2.76149 2447 ft 194 kts 268°
2026-05-06 20:16 49.00225 2.74158 2170 ft 183 kts 269°
2026-05-06 20:16 49.00127 2.72317 1947 ft 166 kts 269°
2026-05-06 20:16 49.00038 2.70654 1722 ft 150 kts 270°
2026-05-06 20:17 48.99958 2.69095 1551 ft 149 kts 269°
2026-05-06 20:17 48.99873 2.67493 1334 ft 155 kts 269°
2026-05-06 20:17 48.99790 2.65836 1154 ft 159 kts 268°
2026-05-06 20:17 48.99703 2.64174 961 ft 158 kts 268°
2026-05-06 20:18 48.99609 2.62503 748 ft 159 kts 266°
2026-05-06 20:18 48.99517 2.60825 486 ft 159 kts 266°
2026-05-06 20:18 48.99421 2.59201 366 ft 146 kts 269°
2026-05-06 20:18 48.99360 2.57809 358 ft 103 kts 265°
2026-05-06 20:19 48.99366 2.57366 362 ft 25 kts 289°
2026-05-06 20:19 48.99416 2.57108 366 ft 25 kts 287°
2026-05-06 20:19 48.99461 2.56868 362 ft 15 kts 284°
2026-05-06 20:19 48.99475 2.56716 364 ft 15 kts 281°
2026-05-06 20:20 48.99551 2.56638 363 ft 15 kts 358°
2026-05-06 20:20 48.99652 2.56621 367 ft 15 kts 353°
2026-05-06 20:20 48.99759 2.56604 365 ft 16 kts 354°
2026-05-06 20:20 48.99867 2.56590 362 ft 16 kts
2026-05-06 20:21 48.99926 2.56705 364 ft 16 kts 83°
2026-05-06 20:21 48.99937 2.56870 359 ft 16 kts 87°
2026-05-06 20:21 48.99943 2.57036 365 ft 16 kts 85°
2026-05-06 20:21 48.99952 2.57201 363 ft 16 kts 85°
2026-05-06 20:22 48.99961 2.57366 365 ft 16 kts 85°
2026-05-06 20:22 48.99970 2.57532 359 ft 16 kts 85°
2026-05-06 20:22 48.99980 2.57701 362 ft 18 kts 84°
2026-05-06 20:22 48.99991 2.57902 365 ft 19 kts 85°
2026-05-06 20:23 49.00002 2.58105 366 ft 19 kts 85°
2026-05-06 20:23 49.00013 2.58307 364 ft 19 kts 85°
2026-05-06 20:23 49.00022 2.58510 362 ft 19 kts 86°
2026-05-06 20:23 49.00030 2.58661 359 ft 11 kts 85°
2026-05-06 20:24 49.00064 2.58759 363 ft 11 kts 22°
2026-05-06 20:24 49.00141 2.58763 361 ft 11 kts 356°
2026-05-06 20:24 49.00220 2.58753 363 ft 11 kts 355°
2026-05-06 20:24 49.00293 2.58740 361 ft 10 kts 352°
2026-05-06 20:25 49.00352 2.58738 364 ft 8 kts 22°
2026-05-06 20:25 49.00380 2.58811 366 ft 9 kts 76°
2026-05-06 20:25 49.00388 2.58902 365 ft 8 kts 84°
2026-05-06 20:25 49.00393 2.58971 364 ft 5 kts 83°
2026-05-06 20:26 49.00395 2.59001 361 ft 0 kts 84°